{"data":{"norad_id":68941,"intl_designator":"2026-098Y","name":"KUIPER-00439","alt_names":[],"object_type":"PAYLOAD","status":"ACTIVE","operator":null,"country":"US","launch_date":"2026-04-30","launch_site_code":"FRGUI","launch_vehicle":null,"mission":null,"orbit_class":"UNKNOWN","rcs_meters":null,"size_class":null,"mass_kg":null,"dimensions":null,"purposes":[],"wikipedia_slug":null,"has_3d_model":false,"image_url":null,"decayed_at":null,"tle_current":{"epoch":"2026-05-25T01:30:52.556256Z","epoch_age_seconds":63427,"freshness":"FRESH","line1":"1 68941U 26098Y   26145.06310829 -.00052080  00000+0 -15735-2 0  9999","line2":"2 68941  51.8763 179.2719 0006230  68.5283 291.6366 15.33687557  3791","mean_motion":15.33687557,"eccentricity":0.000623,"inclination_deg":51.8763,"raan_deg":179.2719,"arg_perigee_deg":68.5283,"mean_anomaly_deg":291.6366,"bstar":-0.0015735,"rev_number":379,"period_min":93.891353126496,"perigee_km":460.55842741218,"apogee_km":469.08475381609,"semimajor_km":6842.9585906141,"source":"CELESTRAK","updated_at":"2026-05-25T13:38:08.797315Z"}}}